SCP
0 0 0 0 0 0 0 0 0 0 0 0 0 0 0 0 0 0 0 0 0 0 0 0 0 0 0 0 0 1 1 1 1 0 0 0 0 0 0 0 1 1 1 1
0 0 0 0 0 0 0 0 0 0 0 0 0 0 0 0 0 0 0 0 0 0 0 0 0 0 0 0 0 1 1 1 1 0 0 0 0 0 0 0 0 0 0 0
0 0 0 0 0 0 0 0 0 0 0 0 0 0 0 0 0 0 0 0 0 0 0 0 0 0 0 0 0 1 1 1 1 0 0 0 0 0 0 0 0 0 0 0
0 0 0 0 0 0 0 0 0 0 0 0 0 0 0 0 0 0 0 0 0 0 0 0 0 0 0 0 0 0 0 1 1 0 0 0 0 0 0 0 0 0 0 0
0 0 0 0 0 0 0 0 0 0 0 0 0 0 0 0 0 0 0 0 0 0 0 0 0 0 0 0 0 0 0 0 0 0 0 0 0 0 0 0 0 0 0 1
0 0 0 0 0 0 0 0 0 0 0 0 0 0 0 0 0 0 0 0 0 0 0 0 0 0 0 0 0 0 0 0 0 0 0 0 0 0 0 0 0 0 0 0
0 0 0 0 0 0 0 0 0 0 0 0 0 0 0 0 0 0 0 0 0 0 0 0 0 0 0 0 0 0 0 0 0 0 0 0 0 0 0 0 0 0 0 0
0 0 0 0 0 0 0 0 0 0 0 0 0 0 0 0 0 0 0 0 0 0 0 0 0 0 0 0 0 0 0 0 0 0 0 0 0 0 0 0 0 0 0 0
0 0 0 0 0 0 0 0 0 0 0 0 0 0 0 0 0 0 0 0 0 0 0 0 0 0 0 0 0 0 0 0 0 0 0 0 0 0 0 0 0 0 0 0
0 0 0 0 0 0 0 0 0 0 0 0 0 0 0 0 0 0 0 0 0 0 0 0 0 0 0 0 0 0 0 0 0 0 0 0 0 0 0 0 0 0 0 0
0 0 0 0 0 0 0 0 0 0 0 0 0 0 0 0 0 0 0 0 0 0 0 0 0 0 0 0 0 0 0 0 0 0 0 0 0 0 0 0 0 0 0 0
0 0 0 0 0 0 0 0 0 0 0 0 0 0 0 0 0 0 0 0 0 0 0 0 0 0 0 0 0 0 0 0 0 0 0 0 0 0 0 0 0 0 0 0
0 0 0 0 0 0 0 0 0 0 0 0 0 0 0 0 0 0 0 0 0 0 0 0 0 0 0 0 0 0 0 0 0 0 0 0 0 0 0 0 0 0 0 0
0 0 0 0 0 0 0 0 0 0 0 0 0 0 0 0 0 0 0 0 0 0 0 0 0 0 0 0 0 0 0 0 0 0 0 0 0 0 0 0 0 0 0 0
0 0 0 0 0 0 0 0 0 0 0 0 0 0 0 0 0 0 0 0 0 0 0 0 0 0 0 0 0 0 0 0 0 0 0 0 0 0 0 0 0 0 0 0
0 0 0 0 0 0 0 0 0 0 0 0 0 0 0 0 0 0 0 0 0 0 0 0 0 0 0 0 0 0 0 0 0 0 0 0 0 0 0 0 0 0 0 0
0 0 0 0 0 0 0 0 0 0 0 0 0 0 0 0 0 0 0 0 0 0 0 0 0 0 0 0 0 0 0 0 0 0 0 0 0 0 0 0 0 0 0 0
0 0 0 0 0 0 0 0 0 0 0 0 0 0 0 0 0 0 0 0 0 0 0 0 0 0 0 0 0 0 0 0 0 0 0 0 0 0 0 0 0 0 0 0
0 0 0 0 0 0 0 0 0 0 0 0 0 0 0 0 0 0 0 0 0 0 0 0 0 0 0 0 0 0 0 0 0 0 0 0 0 0 0 0 0 0 0 0
0 0 0 0 0 0 0 0 0 0 0 0 0 0 0 0 0 0 0 0 0 0 0 0 0 0 0 0 0 0 0 0 0 0 0 0 0 0 0 0 0 0 0 0
0 0 0 0 0 0 0 0 0 0 0 0 0 0 0 0 0 0 0 0 0 0 0 0 0 0 0 0 0 0 0 0 0 0 0 0 0 0 0 0 0 0 0 0
0 0 0 0 0 0 0 0 0 0 0 0 0 0 0 0 0 0 0 0 0 0 0 0 0 0 0 0 0 0 0 0 0 0 0 0 0 0 0 0 0 0 0 0
0 0 0 0 0 0 0 0 0 0 0 0 0 0 0 0 0 0 0 0 0 0 0 0 0 0 0 0 0 0 0 0 0 0 0 0 0 0 0 0 0 0 0 0
0 0 0 0 0 0 0 0 0 0 0 0 0 0 0 0 0 0 0 0 0 0 0 0 0 0 0 0 0 0 0 0 0 0 0 0 0 0 0 0 0 0 0 0
0 0 0 0 0 0 0 0 0 0 0 0 0 0 0 0 0 0 0 0 0 0 0 0 0 0 0 0 0 0 0 0 0 0 0 0 0 0 0 0 0 0 0 0
0 0 0 0 0 0 0 0 0 0 0 0 0 0 0 0 0 0 0 0 0 0 0 0 0 0 0 0 0 0 0 0 0 0 0 0 0 0 0 0 0 0 0 0
Wind_Speed
6 5 7 8 9 7 6 6 8 6 1 3 7 9 7 5 4 4 3 2 2 2 2 2 2 3 3 2 2 2 2 2 2 2 2 1 1 1 1 2 2 2 2 2
5 9 9 7 6 7 9 9 9 5 1 3 6 9 7 5 5 4 3 3 3 3 2 2 2 3 3 3 2 3 3 3 2 1 1 2 1 1 1 1 2 2 2 2
10 5 5 8 9 10 10 9 7 5 4 5 6 7 7 5 4 4 4 3 3 3 3 3 3 3 3 3 2 3 2 3 3 2 1 2 2 1 1 1 1 2 2 2
8 7 7 7 9 8 8 4 4 4 4 4 3 5 5 6 4 4 4 4 3 2 3 3 3 3 3 3 2 2 3 3 3 2 2 3 2 2 1 1 1 2 2 2
5 4 6 8 7 6 4 2 4 5 5 5 5 5 6 5 5 5 5 4 3 3 3 3 4 3 3 3 3 2 3 3 3 3 3 3 2 1 1 1 2 2 2 2
7 4 4 5 3 4 3 3 4 4 2 6 7 6 6 4 5 5 5 4 4 3 3 3 4 4 3 3 3 3 3 3 3 3 3 3 3 2 2 2 2 1 1 1
6 7 6 3 3 3 4 2 0 2 4 7 4 5 6 3 4 5 5 4 3 3 3 3 3 3 3 3 3 3 3 3 3 3 3 3 3 3 2 2 3 2 2 1
4 5 7 6 6 5 6 6 5 4 5 3 2 6 3 4 5 5 5 5 4 3 3 3 3 2 2 3 3 3 3 2 2 2 2 2 3 2 2 2 2 2 2 2
4 3 2 4 4 4 5 5 3 2 3 3 5 3 2 5 5 5 5 4 3 2 3 2 2 2 2 2 3 3 4 3 3 2 2 2 2 2 2 2 2 1 1 2
3 4 3 2 3 5 4 2 2 4 3 4 5 5 4 6 5 4 4 3 2 2 2 2 2 2 2 2 2 3 3 3 3 3 2 2 1 2 2 2 2 2 2 2
3 3 2 2 6 6 5 4 5 3 4 3 3 3 1 6 6 5 3 4 3 2 2 2 1 1 2 3 3 2 2 2 3 2 2 2 2 2 2 2 2 2 2 2
2 2 4 5 3 2 4 5 5 4 4 3 2 4 2 5 5 5 4 4 4 3 2 2 2 2 2 2 2 2 2 2 3 3 2 2 2 2 2 2 2 2 2 2
2 2 2 2 2 2 3 4 4 3 2 3 4 4 1 4 4 4 4 3 3 3 3 3 2 2 2 1 1 2 2 2 2 2 2 2 3 2 2 1 2 2 1 1
4 4 6 6 4 2 5 6 5 4 4 5 6 5 3 1 1 2 2 2 2 2 2 2 2 1 1 1 1 1 2 2 2 3 3 3 3 3 2 2 2 1 1 2
2 5 7 8 7 6 7 7 8 9 8 6 5 5 5 3 1 1 1 1 1 1 1 1 1 1 1 1 1 1 1 2 2 3 3 3 2 2 2 2 1 1 1 1
3 5 5 8 7 7 9 8 9 10 9 9 8 8 3 1 1 1 1 0 1 1 1 0 1 1 1 1 1 1 1 1 2 2 2 2 2 2 2 1 1 1 1 1
4 3 3 5 3 3 7 7 8 6 5 6 8 6 1 1 1 1 1 0 0 0 0 0 0 0 1 1 1 1 1 1 2 2 2 2 2 2 2 1 1 1 1 1
6 5 3 3 2 7 4 1 2 3 3 1 0 1 2 1 2 1 1 1 1 1 0 0 0 0 0 1 1 2 2 1 1 2 2 2 2 1 1 1 1 1 1 1
6 6 4 3 4 6 1 2 1 2 3 1 1 2 3 3 2 2 3 2 0 1 1 1 1 1 1 1 1 2 2 1 1 1 1 1 2 1 1 1 1 1 1 1
3 4 3 3 3 4 1 3 4 1 1 3 2 2 2 2 1 2 3 3 3 2 2 2 2 2 2 1 2 2 1 1 1 1 1 1 1 1 1 2 1 1 1 1
2 3 4 5 4 3 2 3 3 2 2 3 2 1 1 0 1 2 2 3 3 2 2 2 2 2 1 1 1 1 1 1 1 1 1 0 0 1 1 1 1 1 1 1
2 2 3 3 3 4 3 2 1 0 2 3 2 2 2 2 2 3 3 3 3 3 3 2 2 2 2 2 1 0 0 0 1 1 0 0 1 1 0 1 1 1 2 2
1 1 1 2 2 2 1 2 2 3 3 3 3 3 2 2 3 3 3 3 3 3 2 2 1 1 1 1 1 0 0 1 1 0 0 1 1 1 1 1 1 1 2 2
3 2 2 2 3 3 2 3 3 4 3 3 3 3 3 2 2 3 2 2 2 2 2 2 2 1 1 1 1 1 0 0 0 0 1 1 1 1 1 1 1 1 2 2
4 3 3 3 3 3 3 4 3 3 3 3 3 3 2 2 2 2 2 2 2 2 2 2 1 1 1 1 1 1 1 1 0 1 1 1 1 1 1 1 2 2 3 3
2 2 3 4 3 3 4 4 4 3 3 3 3 3 3 2 2 2 2 2 2 2 2 2 2 1 1 1 1 1 1 1 1 1 1 1 1 1 1 1 2 3 3 4
Wind_Direction
191 216 220 220 219 240 261 263 268 268 234 236 247 255 256 239 227 226 201 184 194 203 187 152 145 136 122 120 133 137 134 135 128 134 139 135 154 174 158 161 152 141 145 155
214 227 231 237 240 245 253 254 261 272 263 265 263 264 251 234 220 210 188 186 198 196 185 153 137 127 136 144 146 137 142 141 135 156 162 157 147 154 159 157 144 139 150 153
227 228 215 225 235 242 247 244 254 274 297 262 272 273 234 214 202 183 175 181 197 195 176 158 142 135 139 139 140 147 145 141 138 145 133 120 90 80 97 121 155 156 149 146
241 236 238 235 238 243 252 254 261 266 275 261 224 280 237 203 196 187 177 173 181 188 167 153 151 156 154 144 139 150 146 142 139 138 141 142 137 146 171 154 152 150 138 139
240 215 226 235 238 240 250 285 265 252 254 269 236 245 266 183 195 195 175 167 170 166 157 154 154 158 146 139 148 154 144 142 139 141 143 136 114 112 106 115 118 128 131 132
248 251 245 249 254 244 248 264 265 251 243 257 227 213 262 196 191 174 166 162 162 156 146 139 134 135 136 143 151 152 146 141 139 142 140 136 127 115 108 123 137 134 131 133
236 228 218 225 220 210 214 188 225 245 224 243 207 207 244 178 146 150 147 142 137 139 131 125 128 136 145 148 147 149 148 149 147 152 150 150 139 134 136 138 148 149 148 142
239 236 197 199 211 195 208 201 187 212 229 251 220 223 234 118 102 109 114 112 107 104 110 116 126 137 144 144 146 145 144 141 140 149 148 148 141 137 140 136 138 145 150 152
243 254 162 195 219 211 198 218 230 253 282 267 241 216 174 111 110 113 113 109 114 107 106 118 120 127 136 144 148 147 147 141 140 138 127 123 131 128 129 132 127 126 129 129
276 265 251 220 218 225 230 216 176 199 218 243 242 222 203 162 161 145 129 123 116 106 106 106 121 128 133 138 133 138 144 151 148 145 141 130 129 129 126 122 126 123 116 123
283 239 251 217 208 195 194 214 213 217 228 217 243 254 117 151 150 143 132 126 121 117 126 115 101 107 120 122 119 123 128 129 133 130 124 122 129 123 122 124 127 124 119 136
265 245 248 240 243 269 220 213 197 197 233 228 242 265 23 104 112 114 113 111 115 109 102 99 96 100 105 118 129 135 134 134 140 139 134 131 125 114 113 114 118 119 133 142
283 234 266 256 219 220 230 228 233 245 254 229 223 245 12 79 81 85 94 96 106 111 103 97 92 100 107 108 122 139 139 139 137 136 134 130 128 123 123 117 117 129 147 143
286 252 232 239 264 218 245 241 231 214 216 237 232 241 274 318 55 74 88 103 109 117 117 113 114 113 104 103 104 132 139 138 139 137 140 143 141 137 139 137 136 138 145 151
270 256 263 273 274 269 258 239 225 226 228 229 246 252 259 257 218 132 114 107 135 123 107 113 127 130 105 83 66 63 109 126 141 143 144 145 137 130 130 130 127 126 142 160
264 266 281 276 265 260 265 252 238 235 238 245 265 278 281 291 67 86 109 172 169 152 113 137 130 118 120 115 100 64 76 108 134 138 140 134 133 130 128 131 127 132 154 168
237 247 258 264 264 292 261 239 222 220 225 219 240 254 323 357 332 231 248 56 87 135 165 188 152 142 124 137 133 136 112 107 114 125 128 131 130 133 142 147 147 162 174 163
239 246 251 259 249 238 238 63 168 200 239 210 257 347 19 346 313 309 52 72 356 351 335 184 108 83 72 99 112 114 108 110 122 124 125 129 134 143 153 164 184 197 183 179
230 227 236 231 242 261 267 21 16 195 268 5 284 343 4 8 5 9 32 38 22 359 17 52 69 58 77 89 100 104 102 110 118 130 138 144 140 151 181 205 211 206 194 207
241 231 230 225 235 246 321 352 330 102 277 12 359 323 329 21 330 303 357 13 24 29 44 53 40 38 59 59 93 117 138 144 158 150 129 118 131 173 222 231 227 212 193 208
206 224 227 233 236 262 342 338 18 116 274 342 357 353 43 75 253 300 344 7 26 39 46 53 49 38 54 61 83 127 147 169 145 113 110 127 181 215 225 244 249 203 194 202
217 208 223 229 226 255 348 37 78 320 9 19 23 40 58 49 21 22 17 18 27 33 32 39 45 31 32 52 71 117 191 92 78 90 141 200 233 248 236 219 251 225 197 206
266 265 265 225 230 312 37 31 17 36 26 16 21 29 47 37 13 13 13 16 17 18 16 23 39 33 29 45 71 257 242 109 115 143 235 244 246 236 216 211 221 221 210 217
303 320 307 299 305 344 9 17 27 27 15 4 9 19 26 18 4 3 6 9 10 9 5 8 22 23 3 14 37 340 327 82 107 266 287 273 250 264 262 244 222 223 224 228
298 304 290 281 304 345 1 358 358 355 1 9 6 6 9 8 348 347 350 355 8 10 2 6 2 342 323 340 354 354 359 21 328 282 278 274 258 249 264 268 249 242 237 233
310 296 278 276 313 317 320 343 352 353 351 352 354 356 357 353 333 341 340 348 3 8 2 357 350 348 346 350 340 342 357 358 305 291 289 281 270 265 260 273 298 291 273 276